This is the latest recevied weather packets stored in our database for station/object WB3IGR. If no packets are shown the sender has not sent any weather packets the latest 10 day(s).
| Time | Temp. | Humidity | Pressure | Rain* | Wind** | Luminosity | Snow |
|---|---|---|---|---|---|---|---|
| 1778106993 | 18.33° C | 93% | 1008.9 hPa | 0 mm | - | 28 W/m² | - |
| 1778106689 | 18.33° C | 92% | 1009.1 hPa | 0 mm | - | 23 W/m² | - |
| 1778106386 | 18.33° C | 91% | 1009.2 hPa | 0 mm | - | 15 W/m² | - |
| 1778106082 | 18.33° C | 91% | 1009.2 hPa | 0 mm | - | 14 W/m² | - |
| 1778105780 | 18.33° C | 91% | 1009.1 hPa | 0 mm | - | 19 W/m² | - |
| 1778105478 | 18.89° C | 90% | 1009.1 hPa | 0 mm | - | 30 W/m² | - |
| 1778105175 | 18.89° C | 90% | 1009.3 hPa | 0 mm | - | 56 W/m² | - |
| 1778104870 | 18.89° C | 89% | 1009.2 hPa | 0 mm | - | 91 W/m² | - |
| 1778104566 | 18.89° C | 89% | 1009.1 hPa | 0 mm | - | 98 W/m² | - |
| 1778104262 | 18.89° C | 89% | 1008.9 hPa | 0 mm | - | 94 W/m² | - |
| 1778103959 | 19.44° C | 89% | 1009 hPa | 0 mm | - | 115 W/m² | - |
| 1778103656 | 18.89° C | 89% | 1008.8 hPa | 0 mm | - | 144 W/m² | - |
| 1778103355 | 18.89° C | 89% | 1008.8 hPa | 0 mm | - | 117 W/m² | - |
| 1778103051 | 18.89° C | 89% | 1008.9 hPa | 0 mm | - | 106 W/m² | - |
| 1778102748 | 18.89° C | 89% | 1008.9 hPa | 0 mm | - | 105 W/m² | - |
| 1778102443 | 18.89° C | 89% | 1008.9 hPa | 0 mm | - | 79 W/m² | - |
| 1778102139 | 18.89° C | 89% | 1009 hPa | 0 mm | - | 92 W/m² | - |
| 1778101836 | 18.89° C | 89% | 1008.9 hPa | 0 mm | - | 104 W/m² | - |
| 1778101533 | 19.44° C | 89% | 1008.8 hPa | 0 mm | - | 90 W/m² | - |
| 1778101230 | 19.44° C | 88% | 1008.8 hPa | 0 mm | - | 141 W/m² | - |
| 1778100927 | 19.44° C | 88% | 1008.5 hPa | 0 mm | - | 176 W/m² | - |
| 1778100622 | 19.44° C | 88% | 1008.6 hPa | 0 mm | - | 202 W/m² | - |
| 1778100320 | 19.44° C | 88% | 1008.6 hPa | 0 mm | - | 162 W/m² | - |
| 1778100016 | 19.44° C | 88% | 1008.5 hPa | 0 mm | - | 316 W/m² | - |
| 1778099715 | 18.89° C | 89% | 1008.7 hPa | 0 mm | - | 216 W/m² | - |
* Rain latest hour (hover to see other rain measurements)
** Current wind speed in m/s (hover to see current wind gust speed)